STARLINK-32404, 61710

Orbit data source: Space-Track

STARLINK-32404, 61710 is a payload satellite owned by SpaceX/Seattle (US) in LEO that was launched on Wed, 30 Oct 2024 UTC via an FALCON 9 launch vehicle from the Air Force Eastern Test Range (AFETR). Payload-class satellites include a variety of spacecraft equipped with specific instruments for various scientific and technological missions. These include communications satellites like Starlink; space stations such as the ISS; scientific satellites like the Hubble; Earth observation satellites from companies like Planet Labs, Umbra, and HawkEye 360; GPS; miniature CubeSats for education and research; and military/defense satellites.

Loading next visibility...
Identifier
61710, 2024-196D
Orbit
LEO
Country
Flag of USUS
Related business
Manufacturer
SpaceX/Seattle
Mission
Operational Commercial Communications
Bus & Motor
STARLINK V2M, Unknown motor
Mass
730 kg wet, ~700 kg dry
Launch date (UTC)
2024-10-30 (1 year ago)
Launch vehicle
FALCON 9
Launch site
Air Force Eastern Test Range (AFETR)
Object type
Payload
Rocket body
Debris
Shape & HBR
Box + 2 Pan, 17.7 m
Radar Cross Section
33.884 m², Large (>1 m²)

Expand to show TLE details & history
Last TLE update: 1 day ago

TLE from 1 day ago
0 STARLINK-32404
1 61710U 24196D   26105.78856267  .00000545  00000-0  30537-4 0  9996
2 61710  53.1610 289.2313 0001100  85.7996 274.3130 15.30197142 82831
Epoch: 2026-04-15T18:55Z
TLE epoch observation values (Epoch: 2026-04-15T18:55:31.814Z)
Latitude
-0.00007°
Longitude
161.40326°
Altitude
476.067 km
Speed
7.629 km/s
True Right ascension
19h 16m 55s
True Declination
0° 00' 00"
Sunlit
Object was in daylight at epoch
Visualization orbit readout
Latitude
Unknown
Longitude
Unknown
Altitude
Unknown
Speed
Unknown
Apparent Right ascension
Unknown
Apparent Declination
Unknown
Sunlit
N/A
Visualization observer readout
Local Sidereal Time
01:26:46
Azimuth
Unknown
Elevation
Unknown
Doppler factor
Unknown
Orbital elements
Apogee altitude
476.234 km
Perigee altitude
474.726 km
Semi-major axis
6,853.617 km
Eccentricity
0.00011
Inclination
53.161°
RAAN
289.2313°
Arg. of periapsis
85.7996°
True anomaly
274.30043°
Mean anomaly
274.313°
Eccentric anomaly
274.30672°
Mean motion
3.82528 °/min
Orbital period
94.11 mins
BSTAR
0.000030537
Loading maneuver chart data...
Computing Atmospheric mass density...
Loading historical data...
Loading historical data...
Loading historical data...
Loading historical data...
Loading historical data...
Loading historical data...
Loading historical data...

Documentation

Showing up to 5 results
|